Location: Ladrillo (historical)
(32.8195°N, 117.2231°W)
Time: 00:23:56
(UTC+00:00)

Courier 1B - Pass Details

Date: 11 March 2021
Orbit: 963 x 1209 km, 28.3° (Epoch: 15 April)

Event Time Altitude Azimuth Distance (km) Brightness Sun altitude
Rises 16:16:35 0° 271° (W) 3,684 10.0 26.2°
Reaches altitude 10° 16:19:23 10° 265° (W) 2,713 9.4 26.8°
Maximum altitude 16:25:30 44° 195° (SSW) 1,306 8.6 27.9°
Drops below altitude 10° 16:31:34 10° 125° (SE) 2,690 11.4 29.1°
Sets 16:34:21 0° 119° (ESE) 3,649 11.7 29.6°
